Overview Statistics Trail Chart Weather Telemetry Raw packets
 

This is the latest recevied weather packets stored in our database for station/object KC9DRE. If no packets are shown the sender has not sent any weather packets the latest 10 day(s).

<< 41 42 43 44 45 46 47 >>
Time Temp. Humidity Pressure Rain* Wind** Luminosity Snow
1777648563 15° C 57% 1014.8 hPa 0 mm - 484 W/m² -
1777648260 14.44° C 56% 1014.7 hPa 0 mm - 401 W/m² -
1777647955 13.33° C 62% 1015.1 hPa 0 mm - 769 W/m² -
1777647653 13.89° C 58% 1014.9 hPa 0 mm - 199 W/m² -
1777647349 13.89° C 59% 1014.7 hPa 0 mm - 230 W/m² -
1777647047 13.89° C 61% 1014.6 hPa 0 mm - 807 W/m² -
1777646743 13.33° C 63% 1014.8 hPa 0 mm - 699 W/m² -
1777646438 12.78° C 67% 1014.6 hPa 0 mm - 749 W/m² -
1777646135 12.78° C 67% 1014.8 hPa 0 mm - 240 W/m² -
1777645832 13.33° C 65% 1014.8 hPa 0 mm - 237 W/m² -
1777645529 13.33° C 65% 1014.7 hPa 0 mm - 235 W/m² -
1777645225 13.33° C 63% 1014.5 hPa 0 mm - 270 W/m² -
1777644921 13.89° C 65% 1014.5 hPa 0 mm - 188 W/m² -
1777644619 12.78° C 66% 1014.2 hPa 0 mm - 457 W/m² -
1777644315 13.33° C 64% 1014.2 hPa 0 mm - 319 W/m² -
1777644011 13.33° C 64% 1014.4 hPa 0 mm - 292 W/m² -
1777643708 13.33° C 66% 1014.3 hPa 0 mm - 345 W/m² -
1777643406 13.33° C 66% 1014.2 hPa 0 mm - 238 W/m² -
1777643102 12.78° C 69% 1014.1 hPa 0 mm - 456 W/m² -
1777642799 12.22° C 71% 1014.3 hPa 0 mm - 428 W/m² -
1777642495 11.67° C 73% 1014.3 hPa 0 mm - 229 W/m² -
1777642191 11.11° C 75% 1014.2 hPa 0 mm - 176 W/m² -
1777641889 11.11° C 76% 1014.1 hPa 0 mm - 140 W/m² -
1777641589 11.11° C 76% 1014.1 hPa 0 mm - 86 W/m² -
1777641289 11.11° C 75% 1014.1 hPa 0 mm - 75 W/m² -

* Rain latest hour (hover to see other rain measurements)
** Current wind speed in m/s (hover to see current wind gust speed)